GW1241 Weather Reports


time (UTC)temp
C
wind
direction
speed
KPH
gust
KPH
rain 1hr
cm
rain 24hr
cm
rain mn
cm
humidity
%
barometer
mb
20260510231534 24 0.0 0.0 0.00 0.00 0.00 64 1016.4
20260510230529 24 0.0 0.0 0.00 0.00 0.00 61 1016.4
20260510225524 25 179 3.2 6.4 0.00 0.00 0.00 58 1016.4
20260510224519 25 182 1.6 8.0 0.00 0.00 0.00 52 1016.3
20260510223534 25 202 0.0 3.2 0.00 0.00 0.00 51 1016.2
20260510222530 25 0.0 0.0 0.00 0.00 0.00 50 1016.3
20260510221525 26 0.0 0.0 0.00 0.00 0.00 50 1016.3
20260510220520 25 45 0.0 3.2 0.00 0.00 0.00 52 1016.2
20260510215535 26 0.0 1.6 0.00 0.00 0.00 53 1016.4
20260510214530 26 256 1.6 3.2 0.00 0.00 0.00 47 1016.4
20260510213525 26 133 1.6 3.2 0.00 0.00 0.00 46 1016.5
20260510212541 26 171 1.6 4.8 0.00 0.00 0.00 43 1016.6
20260510211516 26 199 0.0 3.2 0.00 0.00 0.00 44 1016.7
20260510210531 26 182 1.6 4.8 0.00 0.00 0.00 43 1016.6
20260510205526 26 99 0.0 3.2 0.00 0.00 0.00 44 1016.7
20260510204521 26 79 0.0 3.2 0.00 0.00 0.00 44 1016.7
20260510203536 26 49 1.6 3.2 0.00 0.00 0.00 47 1016.9
20260510202531 26 24 1.6 3.2 0.00 0.00 0.00 44 1017.0
20260510201527 26 113 1.6 4.8 0.00 0.00 0.00 39 1017.1
20260510200521 27 257 0.0 3.2 0.00 0.00 0.00 42 1017.2
20260510195516 27 15 0.0 3.2 0.00 0.00 0.00 38 1017.3
20260510194531 26 205 4.8 8.0 0.00 0.00 0.00 42 1017.4
20260510193547 27 196 3.2 11.3 0.00 0.00 0.00 40 1017.4
20260510192521 27 296 3.2 4.8 0.00 0.00 0.00 46 1017.4
20260510191536 27 252 1.6 4.8 0.00 0.00 0.00 44 1017.3
20260510190532 27 220 3.2 11.3 0.00 0.00 0.00 47 1017.3
20260510185547 26 192 3.2 8.0 0.00 0.00 0.00 49 1017.6
20260510184522 26 189 3.2 6.4 0.00 0.00 0.00 46 1017.7
20260510183517 27 254 1.6 4.8 0.00 0.00 0.00 50 1017.7
20260510182532 26 253 3.2 3.2 0.00 0.00 0.00 53 1017.8
20260510181527 26 189 3.2 4.8 0.00 0.00 0.00 56 1017.9
20260510180522 26 292 1.6 3.2 0.00 0.00 0.00 60 1018.0
20260510175517 25 152 1.6 4.8 0.00 0.00 0.00 61 1018.1
20260510174552 25 269 3.2 4.8 0.00 0.00 0.00 67 1018.3
20260510173528 26 204 3.2 6.4 0.00 0.00 0.00 66 1018.4
20260510172542 25 204 3.2 6.4 0.00 0.00 0.00 70 1018.5
20260510171517 24 197 3.2 6.4 0.00 0.00 0.00 75 1018.5
20260510170533 23 286 3.2 6.4 0.00 0.00 0.00 74 1018.4
20260510165528 24 167 3.2 8.0 0.00 0.00 0.00 75 1018.5
20260510164542 23 249 1.6 4.8 0.00 0.00 0.00 77 1018.5
20260510163538 22 128 3.2 6.4 0.00 0.00 0.00 80 1018.5
20260510162533 22 24 1.6 4.8 0.00 0.00 0.00 82 1018.6
20260510161528 21 18 3.2 4.8 0.00 0.00 0.00 85 1018.8
20260510160523 21 29 1.6 3.2 0.00 0.00 0.00 85 1018.7
20260510155518 21 129 1.6 6.4 0.00 0.00 0.00 87 1018.6
20260510154533 21 139 3.2 8.0 0.00 0.00 0.00 89 1018.4
20260510153528 19 167 1.6 4.8 0.00 0.00 0.00 94 1018.4
20260510152523 18 187 1.6 4.8 0.00 0.00 0.00 99 1018.3
20260510151518 18 124 1.6 8.0 0.00 0.00 0.00 99 1018.4
20260510150553 17 183 3.2 8.0 0.00 0.00 0.00 99 1018.4
20260510145529 18 187 1.6 9.7 0.00 0.00 0.00 99 1018.3
20260510144543 17 177 3.2 8.0 0.00 0.00 0.00 99 1018.2
20260510143539 17 99 1.6 4.8 0.00 0.00 0.00 99 1018.2
20260510142554 17 175 4.8 8.0 0.00 0.00 0.00 99 1018.3
20260510141528 16 185 6.4 9.7 0.00 0.00 0.00 99 1018.3
20260510140524 16 166 1.6 8.0 0.00 0.00 0.00 99 1018.3
20260510135518 16 158 3.2 6.4 0.00 0.00 0.00 99 1018.4
20260510134533 16 119 3.2 4.8 0.00 0.00 0.00 99 1018.2
20260510133528 16 139 1.6 3.2 0.00 0.00 0.00 99 1018.1
20260510132523 16 164 3.2 6.4 0.00 0.00 0.00 99 1018.0
20260510131518 16 0.0 1.6 0.00 0.00 0.00 99 1018.1
20260510130534 16 153 1.6 3.2 0.00 0.00 0.00 99 1018.1
20260510125529 15 146 1.6 4.8 0.00 0.00 0.00 99 1018.0
20260510124523 16 61 1.6 3.2 0.00 0.00 0.00 99 1017.9
20260510123538 15 158 1.6 4.8 0.00 0.00 0.00 99 1017.5
20260510122534 15 176 3.2 8.0 0.00 0.00 0.00 99 1017.3
20260510121548 15 164 3.2 8.0 0.00 0.00 0.00 99 1017.3
20260510120524 15 176 3.2 8.0 0.00 0.00 0.00 99 1017.1
20260510115519 15 178 4.8 8.0 0.00 0.00 0.00 99 1017.0
20260510114554 15 182 4.8 8.0 0.00 0.00 0.00 99 1016.8
20260510113549 15 178 3.2 6.4 0.00 0.00 0.00 99 1016.7
20260510112524 15 180 3.2 4.8 0.00 0.00 0.00 99 1016.5
20260510111519 15 143 0.0 3.2 0.00 0.00 0.00 99 1016.4
20260510110535 14 169 3.2 6.4 0.00 0.00 0.00 99 1016.3
20260510105530 14 174 1.6 4.8 0.00 0.00 0.00 99 1016.3
20260510104545 14 178 3.2 4.8 0.00 0.00 0.00 99 1016.0
20260510103520 14 205 0.0 3.2 0.00 0.00 0.00 99 1015.8
20260510102535 13 80 1.6 3.2 0.00 0.00 0.00 99 1015.7
20260510101530 13 0.0 0.0 0.00 0.00 0.00 99 1015.5
20260510100535 13 77 0.0 1.6 0.00 0.00 0.00 99 1015.5
20260510095530 14 149 1.6 3.2 0.00 0.00 0.00 99 1015.3
20260510094525 13 158 0.0 3.2 0.00 0.00 0.00 99 1015.3
20260510093541 13 94 0.0 1.6 0.00 0.00 0.00 99 1015.3
20260510092555 14 72 1.6 3.2 0.00 0.00 0.00 99 1015.2
20260510091551 14 61 1.6 3.2 0.00 0.00 0.00 99 1015.1
20260510090525 14 53 1.6 3.2 0.00 0.00 0.00 99 1015.3
20260510085541 14 0.0 0.0 0.00 0.00 0.00 99 1015.3
20260510084536 14 126 0.0 1.6 0.00 0.00 0.00 99 1015.3
20260510083531 14 62 0.0 1.6 0.00 0.00 0.00 99 1015.0
20260510082544 14 28 1.6 3.2 0.00 0.00 0.00 99 1014.9
20260510081540 15 52 1.6 3.2 0.00 0.00 0.00 99 1014.6
20260510080535 15 26 0.0 3.2 0.00 0.00 0.00 99 1014.6
20260510075529 15 0.0 1.6 0.00 0.00 0.00 99 1014.5
20260510074525 15 31 3.2 3.2 0.00 0.00 0.00 99 1014.5
20260510073534 15 36 1.6 3.2 0.00 0.00 0.00 99 1014.4
20260510072529 15 67 1.6 3.2 0.00 0.00 0.00 99 1014.4
20260510071544 15 0.0 1.6 0.00 0.00 0.00 99 1014.6
20260510070519 15 0.0 0.0 0.00 0.00 0.00 99 1014.5
20260510065534 15 0.0 0.0 0.00 0.00 0.00 98 1014.6
20260510064530 16 0.0 1.6 0.00 0.00 0.00 98 1014.6
20260510063535 16 53 0.0 3.2 0.00 0.00 0.00 98 1014.4
20260510062520 16 122 1.6 3.2 0.00 0.00 0.00 98 1014.6
20260510061535 16 84 0.0 1.6 0.00 0.00 0.00 98 1014.5
20260510060550 16 0.0 0.0 0.00 0.00 0.00 98 1014.6
20260510055525 16 82 1.6 3.2 0.00 0.00 0.00 97 1014.6
20260510054540 16 0.0 1.6 0.00 0.00 0.00 97 1014.6
20260510053536 16 0.0 0.0 0.00 0.00 0.00 97 1014.6
20260510052530 16 42 0.0 1.6 0.00 0.00 0.00 96 1014.5
20260510051525 16 71 1.6 3.2 0.00 0.00 0.00 96 1014.5
20260510050521 17 15 0.0 1.6 0.00 0.00 0.00 96 1014.5
20260510045516 17 62 0.0 1.6 0.00 0.00 0.00 95 1014.6
20260510044532 17 51 0.0 1.6 0.00 0.00 0.00 94 1014.6
20260510043547 17 0.0 1.6 0.00 0.00 0.00 94 1014.7
20260510042522 17 30 0.0 1.6 0.00 0.00 0.00 92 1014.9
20260510041517 18 177 3.2 4.8 0.00 0.00 0.00 91 1015.0
20260510040533 18 135 3.2 4.8 0.00 0.00 0.00 91 1014.9
20260510035528 18 180 3.2 4.8 0.00 0.00 0.00 91 1015.0
20260510034523 18 148 3.2 6.4 0.00 0.00 0.00 90 1015.0
20260510033518 18 155 1.6 4.8 0.00 0.00 0.00 90 1014.9
20260510032533 18 175 3.2 6.4 0.00 0.00 0.00 90 1014.9
20260510031529 18 164 3.2 6.4 0.00 0.00 0.00 90 1014.9
20260510030524 18 161 1.6 4.8 0.00 0.00 0.00 89 1014.7
20260510025519 18 182 4.8 6.4 0.00 0.00 0.00 89 1014.7
20260510024535 18 167 3.2 6.4 0.00 0.00 0.00 88 1014.5
20260510023535 18 183 3.2 6.4 0.00 0.00 0.00 88 1014.5
20260510022545 19 161 3.2 6.4 0.00 0.00 0.00 87 1014.1
20260510021520 19 188 3.2 6.4 0.00 0.00 0.00 85 1014.0
20260510020557 19 179 3.2 6.4 0.00 0.00 0.00 85 1013.8
20260510015531 20 182 3.2 6.4 0.00 0.00 0.00 84 1013.5
20260510014611 20 173 1.6 4.8 0.00 0.00 0.00 84 1013.2
20260510013521 20 151 1.6 3.2 0.00 0.00 0.00 84 1013.2
20260510012516 20 155 1.6 3.2 0.00 0.00 0.00 82 1012.9
20260510011551 20 97 0.0 3.2 0.00 0.00 0.00 81 1012.8
20260510010526 21 194 1.6 4.8 0.00 0.00 0.00 79 1012.6
20260510005522 20 195 1.6 4.8 0.00 0.00 0.00 81 1012.5
20260510004518 20 0.0 0.0 0.00 0.00 0.00 82 1012.3
20260510003532 21 0.0 0.0 0.00 0.00 0.00 80 1012.2
20260510002527 21 193 0.0 3.2 0.00 0.00 0.00 77 1012.0
20260510001523 21 206 1.6 3.2 0.00 0.00 0.00 78 1012.1
20260510000518 22 0.0 0.0 0.00 0.00 0.00 75 1012.0
20260509235554 22 0.0 0.0 0.00 0.00 0.00 75 1011.9
20260509234529 22 0.0 0.0 0.00 0.00 0.00 73 1011.8
20260509233524 22 0.0 0.0 0.00 0.00 0.00 71 1011.7
20260509232539 22 0.0 1.6 0.00 0.00 0.00 70 1011.8